Location: Newark
(43.4306°N, 0.3089°E)
Time: 04:54:49
(UTC+00:00)

Transit 2A Rocket - Pass Details

Date: 27 August 2019
Orbit: 592 x 911 km, 66.7° (Epoch: 18 September)

Event Time Altitude Azimuth Distance (km) Brightness Sun altitude
Rises 03:10:55 0° 325° (NW) 2,986 8.1 -21.1°
Reaches altitude 10° 03:13:18 10° 323° (NW) 2,030 7.2 -20.8°
Maximum altitude 03:17:46 62° 243° (WSW) 687 4.4 -20.1°
Enters shadow 03:21:00 17° 165° (SSE) 1,533 6.4 -19.7°
Exits shadow 03:23:59 - 159° (SSE) 2,721 7.7 -19.2°
Sets 03:24:13 0° 159° (SSE) 2,813 7.8 -19.2°
